MIDAS 4 DEB, 27478

Orbit data source: Space-Track

MIDAS 4 DEB, 27478 is space debris in LEO originally from a launch on Sat, 21 Oct 1961 UTC launched from the Air Force Western Test Range (AFWTR). Debris objects in space refer to the collection of defunct objects orbiting the Earth. Examples of debris include non-operational satellites, rocket bodies, and fragments generated from explosions, collisions, or faulty payload assembly.

Loading next visibility...
Identifier
27478, 1961-028H
Orbit
LEO
Country
Flag of USUS
Related business
Manufacturer
Unknown
Mission
Spacecraft
Bus & Motor
Unknown
Mass
Unknown
Launch date (UTC)
1961-10-21 (64 years ago)
Launch vehicle
Unknown
Launch site
Air Force Western Test Range (AFWTR)
Object type
Payload
Rocket body
Debris
Shape & HBR
Unknown shape, 1.1 m
Radar Cross Section
Medium (>0.1 m² and <1 m²)

Expand to show TLE details & history
Last TLE update: 2 days ago

TLE from 2 days ago
0 MIDAS 4 DEB
1 27478U 61028H   25292.14280654 -.00000035  00000-0 -13913-1 0  9993
2 27478  95.8761 167.6270 0272285 206.1530 315.9471  8.66668775569906
Epoch: 2025-10-19T03:25Z
TLE epoch observation values (Epoch: 2025-10-19T03:25:38.485Z)
Latitude
20.01454°
Longitude
-89.50725°
Altitude
3,442.977 km
Speed
6.434 km/s
True Right ascension
23h 19m 04s
True Declination
19° 56' 04"
Sunlit
Object was in full shadow at epoch
Visualization orbit readout
Latitude
Unknown
Longitude
Unknown
Altitude
Unknown
Speed
Unknown
Apparent Right ascension
Unknown
Apparent Declination
Unknown
Sunlit
N/A
Visualization observer readout
Local Sidereal Time
14:00:26
Azimuth
Unknown
Elevation
Unknown
Doppler factor
Unknown
Orbital elements
Apogee altitude
3,903.791 km
Perigee altitude
3,358.71 km
Semi-major axis
10,009.387 km
Eccentricity
0.02723
Inclination
95.8761°
RAAN
167.627°
Arg. of periapsis
206.153°
True anomaly
313.7238°
Mean anomaly
315.9471°
Eccentric anomaly
314.8409°
Mean motion
2.16736 °/min
Orbital period
166.1 mins
BSTAR
-0.013913
Loading maneuver chart data...
Computing Atmospheric mass density...
Loading historical data...
Loading historical data...
Loading historical data...
Loading historical data...
Loading historical data...
Loading historical data...
Loading historical data...

Documentation

Showing up to 5 results
|